Powrót do katalogu

COSMOS 1253

AktywnyMilitariaLEO
NORAD 12323·PAYLOAD·🇷🇺 Russia

Wystrzelony Mar 6, 1981 z Plesetsk Cosmodrome

Loading…

Następne Przeloty (najbliższe 24 godziny)

TLE

ŚwieżeSource: Space-Track

Epoka: Sep 14, 2026, 15:21 UTC

1 12323U 81022D   26257.64000955 -.00000015  00000-0  29380-5 0  9999
2 12323  74.0324  24.1149 0018419 278.4290  92.8501 12.45841957 70467

Śledź COSMOS 1253 w czasie rzeczywistym z AllMySat

Download on the App Store